CAPE
0 0 0 0 0 0 0 0 0 0 0 0 0 0 0 0 3 132 31 57 103 119 173 414 666 893 726 827 714 705 688 362 259 37 17 26 26 17 107 39 55 26 17 16 23 19 9 9 5
0 0 0 0 0 0 0 0 0 0 0 0 0 0 0 0 0 0 0 46 68 82 83 203 412 687 592 593 430 347 190 31 9 32 26 10 41 28 36 62 62 35 15 23 19 17 9 9 9
0 0 0 0 0 0 0 0 0 0 0 0 0 0 0 0 0 0 3 31 16 68 101 136 326 610 572 470 329 236 77 14 14 13 24 7 20 40 22 59 50 12 10 12 19 14 9 8 6
0 0 0 0 0 0 0 0 0 0 0 0 0 0 0 0 0 0 0 0 5 132 113 100 369 479 413 372 285 162 90 27 32 33 26 13 45 37 48 61 50 23 9 13 9 13 5 6 5
0 0 0 0 0 0 0 0 0 0 0 0 0 0 0 0 0 0 0 4 7 94 85 120 283 386 379 299 229 128 60 44 30 28 23 4 28 37 35 43 47 23 14 9 7 6 12 5 0
0 0 0 0 0 0 0 0 0 0 0 0 0 0 0 0 0 0 0 2 3 13 67 36 134 165 176 177 137 79 47 44 33 15 11 6 21 29 33 43 35 26 9 10 8 7 0 0 0
0 0 2 0 0 0 0 0 0 0 0 0 0 0 0 0 0 0 0 0 0 3 22 23 15 38 29 17 16 45 44 42 23 33 15 15 32 43 32 28 53 26 11 10 5 0 0 0 0
0 0 0 0 0 0 0 0 0 0 0 0 0 0 0 0 0 0 1 0 7 0 2 8 6 9 5 0 4 13 8 9 10 5 0 6 10 8 15 18 34 27 12 4 0 0 0 0 0
0 0 0 0 0 1 0 0 0 0 0 0 0 0 0 8 0 0 0 0 1 0 0 5 1 13 23 11 0 3 4 4 0 0 0 0 0 2 3 15 20 20 12 3 0 0 0 0 0
0 0 0 0 0 2 2 0 0 0 0 0 0 0 0 8 0 3 0 0 1 0 0 1 1 0 9 23 5 10 0 15 2 0 0 0 0 0 2 6 4 0 0 0 0 0 0 0 0
0 0 0 0 0 0 0 0 0 0 0 0 0 0 13 4 3 3 0 0 0 0 0 0 0 0 2 3 7 9 3 7 9 9 0 0 0 0 0 0 0 0 0 0 0 0 0 0 0
0 0 0 0 0 0 0 0 0 0 0 0 0 0 0 19 0 18 2 0 0 0 0 0 0 0 1 0 0 0 0 4 7 1 0 0 0 0 0 0 0 0 0 0 0 0 0 0 0
0 0 0 0 0 0 0 0 0 0 0 0 0 0 0 1 0 5 10 0 0 0 0 0 0 0 0 0 0 0 0 0 0 2 5 0 0 0 0 0 0 0 0 0 0 0 0 0 0
2 5 0 0 0 0 0 0 0 0 0 0 0 0 0 0 0 0 0 5 0 0 0 0 0 0 0 0 0 0 0 0 0 0 0 0 0 0 0 0 0 0 0 0 0 0 0 0 0
0 0 0 0 0 0 0 0 0 0 0 0 0 0 0 0 0 0 0 8 5 0 0 0 0 0 0 0 0 0 0 0 0 0 0 0 0 0 0 0 0 0 0 0 0 0 0 0 0
0 0 0 0 0 0 0 0 0 0 0 0 0 0 0 0 0 0 0 0 0 0 0 0 0 0 0 0 0 0 0 0 0 0 0 0 0 0 0 0 0 0 0 0 0 0 0 0 0
5 6 10 0 0 2 0 0 0 0 0 0 0 0 0 0 0 0 0 0 0 0 0 0 0 0 0 0 0 0 0 0 0 0 0 0 0 0 0 0 0 0 0 0 0 0 0 0 0
2 9 2 1 0 0 0 0 0 0 0 0 0 0 0 0 0 0 0 0 0 0 0 0 0 0 0 0 0 0 0 0 0 0 0 0 0 0 0 0 0 0 0 0 0 0 0 0 0
0 16 4 1 0 0 0 0 0 0 0 0 0 0 0 0 0 0 0 0 0 0 0 0 0 0 0 0 0 0 0 0 0 0 0 0 0 0 0 0 0 0 0 0 0 0 0 0 0
17 14 7 5 2 0 0 0 0 0 0 0 0 0 0 0 0 0 0 0 0 0 0 0 0 0 0 0 0 0 0 0 0 0 0 0 0 0 0 0 0 0 0 0 0 0 0 0 0
18 2 5 5 0 4 6 1 0 0 0 0 0 0 0 0 0 0 0 0 0 0 0 0 0 0 0 0 0 0 0 0 0 0 0 0 0 0 0 0 0 0 0 0 0 0 0 0 0
39 1 38 18 23 21 22 1 0 0 0 0 0 0 0 0 0 0 0 0 0 0 2 0 0 0 0 0 0 0 0 0 0 0 0 0 0 0 0 0 0 0 0 0 0 0 0 0 0
0 28 20 29 32 29 0 17 0 0 0 0 0 0 0 0 0 0 0 0 0 0 0 0 0 0 0 0 0 0 0 0 0 0 0 0 0 0 0 0 0 0 0 0 0 0 0 0 0
33 42 39 33 44 60 0 25 0 0 0 0 0 0 0 0 0 0 0 0 0 0 0 1 0 0 0 0 0 0 0 0 0 0 0 0 0 0 0 0 0 0 0 0 0 0 0 0 0
38 41 7 11 12 0 0 32 0 0 0 0 0 0 0 0 0 0 0 0 0 0 0 0 0 0 0 0 0 0 0 0 0 0 0 0 0 0 0 0 0 0 0 0 0 0 0 0 0
4 15 17 5 12 0 0 25 0 0 0 0 0 0 0 0 0 0 0 0 0 0 0 0 2 0 0 0 0 0 0 0 0 0 0 0 0 0 0 0 0 0 0 0 0 0 0 0 0
9 105 8 26 0 8 3 1 0 0 0 0 0 0 0 0 0 0 0 0 0 0 0 0 4 18 16 0 0 0 0 0 0 0 0 0 0 0 0 0 0 0 0 0 0 0 0 0 0
35 49 115 19 21 7 0 0 0 0 0 0 0 0 0 0 0 0 0 0 0 0 0 0 0 7 23 23 5 5 1 0 0 0 0 0 0 0 0 0 0 0 0 0 0 0 0 0 0
0 15 23 3 1 38 1 0 0 0 0 0 0 0 0 0 0 0 0 0 0 0 0 0 0 0 1 6 2 1 16 0 0 0 0 0 0 0 0 0 0 0 0 0 0 0 0 0 0
1 0 0 6 0 0 0 0 0 0 0 0 0 0 0 0 0 0 0 0 0 0 0 0 0 0 0 0 0 0 0 3 0 0 0 0 0 0 0 0 0 0 0 0 0 0 0 0 0
CIN
-0 -0 -0 -0 -0 -0 -0 -0 -0 -0 -0 -0 -0 -0 -0 -0 -4 -59 -38 -14 -30 -66 -50 -8 -1 -0 -0 -0 -2 -1 -1 -6 -3 -19 -4 -0 -0 -0 -62 -1 -0 -0 -0 -0 -0 -0 -2 -0 -0
-0 -0 -0 -0 -0 -0 -0 -0 -0 -0 -0 -0 -0 -0 -0 -0 -0 -0 -0 -22 -27 -60 -61 -18 -10 -0 -0 -0 -0 -0 -0 -67 -0 -2 -4 -1 -2 -1 -2 -1 -1 -0 -0 -0 -0 -0 -0 -0 -0
-0 -0 -0 -0 -0 -0 -0 -0 -0 -0 -0 -0 -0 -0 -0 -0 -0 -0 -6 -42 -14 -50 -37 -36 -15 -2 -1 -7 -0 -0 -17 -0 -0 -0 -4 -0 -1 -0 -2 -5 -1 -0 -1 -0 -0 -0 -0 -0 -0
-0 -0 -0 -0 -0 -0 -0 -0 -0 -0 -0 -0 -0 -0 -0 -0 -0 -0 -0 -1 -3 -51 -44 -33 -37 -16 -24 -0 -0 -8 -25 -1 -3 -0 -2 -0 -3 -3 -4 -4 -3 -1 -1 -0 -0 -0 -0 -0 -0
-0 -0 -0 -0 -0 -0 -0 -0 -0 -0 -0 -0 -0 -0 -0 -0 -0 -0 -0 -3 -27 -44 -66 -21 -11 -35 -40 -0 -2 -21 -51 -1 -0 -1 -0 -0 -3 -1 -5 -4 -1 -1 -1 -2 -0 -0 -0 -0 -0
-0 -0 -0 -0 -0 -0 -0 -0 -0 -0 -0 -0 -0 -0 -0 -0 -0 -0 -0 -7 -16 -18 -57 -64 -15 -2 -4 -1 -17 -47 -0 -1 -1 -0 -0 -1 -2 -3 -2 -5 -5 -0 -0 -1 -0 -0 -0 -0 -0
-0 -0 -4 -0 -0 -0 -0 -0 -0 -0 -0 -0 -0 -0 -0 -0 -0 -0 -2 -0 -9 -8 -60 -78 -23 -29 -40 -39 -4 -3 -1 -2 -6 -1 -0 -0 -8 -6 -6 -10 -1 -0 -1 -0 -0 -0 -0 -0 -0
-0 -0 -0 -0 -0 -0 -0 -0 -0 -0 -0 -0 -0 -0 -0 -0 -0 -0 -0 -0 -4 -0 -19 -16 -24 -7 -4 -0 -6 -4 -8 -12 -15 -15 -0 -11 -24 -32 -24 -31 -12 -3 -0 -0 -0 -0 -0 -0 -0
-0 -0 -0 -0 -0 -0 -0 -0 -0 -0 -0 -0 -0 -0 -0 -237 -0 -0 -0 -8 -4 -0 -0 -7 -3 -9 -11 -8 -0 -9 -11 -13 -0 -0 -0 -0 -0 -9 -11 -12 -18 -7 -0 -0 -0 -0 -0 -0 -0
-0 -0 -0 -0 -0 -4 -2 -0 -0 -0 -0 -0 -0 -0 -0 -276 -0 -191 -0 -0 -2 -0 -0 -6 -22 -0 -14 -6 -46 -9 -0 -42 -17 -0 -0 -0 -0 -0 -17 -26 -17 -0 -0 -0 -0 -0 -0 -0 -0
-0 -0 -0 -0 -0 -0 -0 -0 -0 -0 -0 -0 -0 -0 -194 -278 -223 -158 -0 -0 -0 -0 -0 -0 -1 -0 -25 -12 -35 -14 -12 -26 -26 -28 -0 -3 -0 -0 -4 -0 -0 -0 -0 -0 -0 -0 -0 -0 -0
-0 -0 -0 -0 -0 -0 -0 -0 -0 -0 -0 -0 -0 -0 -0 -289 -0 -250 -99 -0 -0 -0 -0 -0 -0 -0 -8 -0 -0 -0 -0 -20 -22 -15 -1 -0 -0 -0 -0 -0 -0 -0 -0 -0 -0 -0 -0 -0 -0
-0 -0 -0 -0 -0 -0 -0 -0 -0 -0 -0 -0 -0 -0 -0 -105 -81 -248 -247 -0 -0 -0 -0 -0 -0 -0 -0 -0 -0 -0 -0 -0 -0 -9 -11 -0 -0 -0 -0 -0 -0 -0 -0 -0 -0 -0 -0 -0 -0
-10 -27 -0 -0 -0 -0 -0 -0 -0 -0 -0 -0 -0 -0 -0 -0 -0 -0 -0 -260 -0 -0 -0 -0 -0 -0 -0 -0 -0 -0 -0 -0 -0 -0 -0 -0 -0 -0 -0 -0 -0 -0 -0 -0 -0 -0 -0 -0 -0
-5 -0 -0 -0 -0 -0 -0 -0 -0 -0 -0 -0 -0 -0 -0 -0 -0 -0 -0 -248 -262 -0 -0 -0 -0 -0 -0 -0 -0 -0 -0 -0 -0 -0 -0 -0 -0 -0 -0 -0 -0 -0 -0 -0 -0 -0 -0 -0 -0
-4 -0 -0 -0 -0 -0 -0 -0 -0 -0 -0 -0 -0 -0 -0 -0 -0 -0 -0 -0 -0 -0 -0 -0 -0 -0 -0 -0 -0 -0 -0 -0 -0 -0 -0 -0 -0 -0 -0 -0 -0 -0 -0 -0 -0 -0 -0 -0 -0
-8 -2 -3 -1 -0 -10 -0 -0 -0 -0 -0 -0 -0 -0 -0 -0 -0 -0 -0 -0 -0 -0 -0 -0 -0 -0 -0 -0 -0 -0 -0 -0 -0 -0 -0 -0 -0 -0 -0 -0 -0 -0 -0 -0 -0 -0 -0 -0 -0
-2 -2 -0 -0 -0 -0 -0 -0 -0 -0 -0 -0 -0 -0 -0 -0 -0 -0 -0 -0 -0 -0 -0 -0 -0 -0 -0 -0 -0 -0 -0 -0 -0 -0 -0 -0 -0 -0 -0 -0 -0 -0 -0 -0 -0 -0 -0 -0 -0
-0 -2 -3 -5 -0 -0 -0 -0 -0 -0 -0 -0 -0 -0 -0 -0 -0 -0 -0 -0 -0 -0 -0 -0 -0 -0 -0 -0 -0 -0 -0 -0 -0 -0 -0 -0 -0 -0 -0 -0 -0 -0 -0 -0 -0 -0 -0 -0 -0
-1 -0 -0 -0 -24 -5 -0 -0 -0 -0 -0 -0 -0 -0 -0 -0 -0 -0 -0 -0 -0 -0 -0 -0 -0 -0 -0 -0 -0 -0 -0 -0 -0 -0 -0 -0 -0 -0 -0 -0 -0 -0 -0 -0 -0 -0 -0 -0 -0
-14 -1 -0 -0 -1 -9 -6 -3 -0 -0 -0 -0 -0 -0 -0 -0 -0 -0 -0 -0 -0 -0 -0 -0 -0 -0 -0 -0 -0 -0 -0 -0 -0 -0 -0 -0 -0 -0 -0 -0 -0 -0 -0 -0 -0 -0 -0 -0 -0
-0 -0 -2 -2 -0 -0 -1 -4 -0 -0 -0 -0 -0 -0 -0 -0 -0 -0 -0 -0 -0 -0 -205 -0 -0 -0 -0 -0 -0 -0 -0 -0 -0 -0 -0 -0 -0 -0 -0 -0 -0 -0 -0 -0 -0 -0 -0 -0 -0
-0 -3 -5 -7 -1 -0 -0 -3 -0 -0 -0 -0 -0 -0 -0 -0 -0 -0 -0 -0 -0 -182 -0 -0 -0 -0 -0 -0 -0 -0 -0 -0 -0 -0 -0 -0 -0 -0 -0 -0 -0 -0 -0 -0 -0 -0 -0 -0 -0
-15 -11 -19 -9 -1 -0 -0 -0 -0 -0 -0 -0 -0 -0 -0 -0 -0 -0 -0 -0 -0 -0 -0 -278 -0 -0 -0 -0 -0 -0 -0 -0 -0 -0 -0 -0 -0 -0 -0 -0 -0 -0 -0 -0 -0 -0 -0 -0 -0
-13 -5 -3 -0 -3 -5 -0 -2 -0 -0 -0 -0 -0 -0 -0 -0 -0 -0 -0 -0 -0 -0 -0 -0 -0 -0 -0 -0 -0 -0 -0 -0 -0 -0 -0 -0 -0 -0 -0 -0 -0 -0 -0 -0 -0 -0 -0 -0 -0
-11 -3 -6 -6 -0 -0 -0 -11 -0 -0 -0 -0 -0 -0 -0 -0 -0 -0 -0 -0 -0 -0 -0 -64 -329 -0 -0 -0 -0 -0 -0 -0 -0 -0 -0 -0 -0 -0 -0 -0 -0 -0 -0 -0 -0 -0 -0 -0 -0
-2 -0 -19 -3 -0 -0 -8 -16 -0 -0 -0 -0 -0 -0 -0 -0 -0 -0 -0 -0 -0 -0 -0 -0 -437 -397 -354 -43 -0 -0 -0 -0 -0 -0 -0 -0 -0 -0 -0 -0 -0 -0 -0 -0 -0 -0 -0 -0 -0
-11 -22 -5 -7 -2 -4 -9 -0 -0 -0 -0 -0 -0 -0 -0 -0 -0 -0 -0 -0 -0 -0 -0 -0 -0 -359 -457 -380 -339 -318 -130 -0 -0 -0 -0 -0 -0 -0 -0 -0 -0 -0 -0 -0 -0 -0 -0 -0 -0
-1 -2 -3 -15 -0 -1 -9 -1 -0 -0 -0 -0 -0 -0 -0 -0 -0 -0 -0 -0 -0 -0 -0 -0 -0 -0 -149 -520 -415 -117 -310 -0 -0 -79 -0 -0 -0 -0 -0 -0 -0 -0 -0 -0 -0 -0 -0 -0 -0
-6 -0 -0 -9 -0 -0 -0 -0 -0 -0 -0 -0 -0 -0 -0 -0 -0 -0 -0 -0 -0 -0 -0 -0 -0 -0 -0 -0 -0 -0 -0 -293 -0 -119 -0 -0 -0 -0 -0 -0 -0 -0 -0 -0 -0 -0 -0 -3 -0
Wind_Speed
18 15 9 2 2 2 4 4 5 6 4 3 8 5 4 10 5 4 5 4 13 14 11 10 11 12 13 12 13 11 12 13 12 13 10 12 12 12 14 15 15 16 15 16 16 16 16 16 16
11 17 4 3 1 4 5 3 3 10 7 6 4 1 2 5 7 6 7 4 10 14 11 10 11 13 12 11 12 12 11 10 10 11 11 9 10 12 12 15 16 15 14 16 16 15 15 15 14
14 11 3 2 2 4 4 7 6 9 4 3 3 1 3 4 6 7 9 9 8 12 10 12 12 12 13 12 11 13 12 10 11 11 11 9 10 12 8 13 15 13 14 15 15 14 14 13 12
5 3 3 2 6 3 5 6 6 6 2 5 4 7 6 6 5 6 9 11 9 12 12 10 11 12 12 11 12 12 12 10 12 12 11 11 11 9 9 13 17 12 12 14 13 13 12 11 9
4 4 3 4 7 3 6 4 6 3 4 6 1 4 6 4 6 8 8 8 12 10 11 9 9 11 11 12 12 12 11 11 12 11 11 10 10 10 7 12 16 12 12 12 12 11 11 10 8
4 3 3 5 8 8 6 6 2 6 6 4 4 3 5 9 7 7 7 9 10 7 10 10 7 9 10 11 11 11 12 12 14 10 10 10 9 9 6 12 15 11 11 11 11 10 9 8 7
5 4 7 9 8 6 5 4 4 5 5 3 2 4 5 7 9 5 5 8 11 7 10 11 7 6 8 11 11 11 11 10 15 11 11 9 8 8 8 7 10 12 10 10 9 9 9 7 6
3 3 8 9 7 8 6 3 4 2 2 2 3 3 5 8 10 7 7 6 9 8 10 8 9 8 6 5 10 10 11 11 11 12 12 10 9 9 7 7 8 11 11 10 9 8 7 6 4
5 3 6 11 9 6 7 5 3 4 1 2 4 4 3 15 10 6 6 5 6 7 6 8 8 8 9 7 6 9 11 10 9 10 10 10 4 5 6 5 9 10 9 9 9 8 7 6 3
4 4 8 10 8 6 5 7 8 2 5 5 4 5 7 12 10 9 8 8 8 8 7 7 10 8 8 8 9 6 6 7 6 6 6 5 8 7 6 6 8 8 7 6 6 7 7 6 3
4 8 11 10 9 8 7 7 3 5 8 5 7 14 12 11 9 10 10 8 9 9 6 7 7 7 10 6 6 4 4 4 5 8 6 5 5 4 4 3 3 4 5 3 4 3 4 5 4
12 12 13 11 12 4 7 8 8 8 9 8 6 8 15 11 11 13 12 9 7 8 8 8 8 6 7 5 6 5 5 4 4 5 7 4 3 5 4 4 5 4 4 5 5 4 5 2 3
14 11 11 14 7 6 3 8 7 10 10 8 6 2 9 11 13 12 8 9 9 9 9 9 8 8 6 6 5 5 6 5 6 6 6 5 4 5 4 5 5 5 5 4 4 4 3 4 4
6 9 8 13 11 7 8 9 8 7 6 7 10 8 8 10 13 10 12 12 11 9 11 10 10 8 8 6 7 5 5 6 6 6 6 7 5 5 4 4 5 4 4 4 5 4 5 4 4
6 9 10 12 9 6 6 11 12 11 12 7 10 8 9 10 11 13 12 13 13 12 8 12 12 9 8 9 7 5 5 5 5 5 8 9 7 7 6 5 4 5 5 6 4 3 3 3 3
2 7 12 7 11 7 8 16 9 9 12 15 12 13 12 12 11 11 12 14 14 12 13 9 11 11 10 10 8 6 5 5 5 5 5 8 7 7 6 5 5 5 4 4 3 3 3 4 4
6 11 13 16 15 9 14 11 8 6 12 12 10 11 12 15 11 11 14 16 15 13 14 12 12 13 12 9 9 7 7 6 5 5 5 7 8 7 6 5 5 6 4 4 4 4 4 4 4
5 6 11 15 9 9 18 19 12 9 12 13 10 10 11 14 17 14 16 15 15 16 15 14 13 15 14 9 7 6 6 5 6 7 7 8 8 8 6 5 6 6 5 5 4 5 4 4 4
5 10 17 14 17 15 15 15 15 15 15 17 16 13 12 13 10 11 17 16 15 17 17 18 16 16 13 11 11 10 11 8 8 8 11 11 10 10 8 5 7 6 6 6 6 5 6 5 3
13 15 17 14 10 11 11 19 13 18 20 17 15 16 17 17 17 14 8 16 17 18 19 18 18 18 15 12 11 10 10 9 9 8 9 11 11 12 11 10 7 8 6 7 7 6 4 4 5
13 16 15 13 10 15 15 22 17 24 20 19 20 18 17 18 15 16 14 11 15 18 18 19 20 19 18 18 10 9 8 7 9 10 10 11 13 12 12 12 10 8 8 8 7 7 8 5 4
17 15 12 10 5 7 3 10 15 13 15 20 23 22 23 20 17 17 16 16 16 19 19 21 19 19 19 20 16 19 14 14 13 11 10 11 14 13 13 13 13 10 8 9 10 8 7 6 6
19 6 14 11 11 7 18 11 16 5 14 16 11 12 21 21 19 22 19 17 12 16 19 18 19 19 20 20 19 15 16 14 11 10 13 13 13 15 15 15 13 13 10 11 11 7 11 8 8
4 2 3 3 4 10 20 13 15 15 21 18 14 15 11 14 17 18 14 12 14 12 16 17 19 20 20 20 21 20 20 17 12 13 12 12 10 12 16 16 15 15 13 13 11 11 9 11 9
15 5 3 4 5 9 21 12 22 15 14 12 10 13 12 11 12 9 11 12 12 10 14 17 19 21 21 21 21 22 21 20 19 16 13 14 12 11 16 18 16 14 15 14 13 12 13 13 11
8 12 8 5 7 7 8 8 15 17 19 25 20 13 10 9 7 8 8 8 9 10 9 16 18 20 20 21 22 21 22 15 15 16 13 12 13 14 16 17 17 18 16 15 13 10 11 13 12
8 11 12 15 11 6 4 7 11 13 9 7 7 7 10 10 8 9 8 8 8 7 9 10 17 19 20 21 19 20 20 21 18 20 17 14 15 13 15 17 18 17 17 16 15 12 13 13 12
18 8 5 6 9 10 8 7 10 6 7 6 9 11 12 9 8 8 8 7 7 7 7 8 9 17 19 19 18 18 20 20 19 16 19 19 17 16 15 16 17 17 17 17 16 14 13 14 12
11 15 13 4 3 2 4 5 5 10 8 5 6 8 8 6 2 6 6 5 5 5 6 7 8 9 12 15 17 17 18 20 18 18 18 19 17 16 17 16 17 18 17 16 16 16 14 15 14
13 16 19 11 19 8 6 15 8 17 23 12 9 5 2 2 4 5 6 5 6 6 7 7 7 7 11 12 14 15 15 16 18 18 19 17 18 16 16 16 16 17 17 17 17 18 15 16 14
Wind_Direction
317 316 304 333 345 167 265 60 358 92 113 19 54 31 44 46 12 90 137 90 125 118 124 127 124 120 118 114 105 103 103 99 98 101 97 108 101 98 85 98 96 94 92 93 92 90 88 88 86
310 309 288 252 254 300 63 58 79 62 77 69 92 226 102 97 73 137 103 158 131 124 140 131 129 130 126 116 113 110 105 110 112 106 106 110 105 106 91 106 97 98 100 97 98 95 90 88 86
299 291 294 338 282 289 73 34 49 78 105 162 149 6 21 84 89 151 126 150 129 128 126 125 134 136 131 127 125 119 117 118 117 113 110 119 106 104 102 104 101 102 105 106 96 96 94 91 88
319 253 256 240 250 59 49 65 350 118 96 327 359 101 84 44 124 118 152 140 121 109 114 130 139 139 137 133 129 127 127 125 118 110 113 118 100 105 103 106 102 102 112 103 106 97 95 88 81
249 275 272 259 263 351 104 72 320 198 153 140 171 106 91 81 106 118 160 137 113 118 125 134 141 142 145 144 137 134 132 123 112 119 120 125 104 104 95 106 109 113 107 107 106 101 91 81 70
302 260 267 243 244 249 130 107 193 270 64 77 317 267 86 117 133 155 156 123 117 141 144 133 143 145 146 147 145 143 138 134 119 125 123 130 117 120 102 116 117 118 118 113 109 102 94 85 71
256 304 263 274 274 259 119 126 197 214 137 147 62 318 109 142 120 152 136 130 148 178 130 140 155 155 149 147 151 150 145 142 131 130 131 133 109 103 111 79 111 121 129 116 115 113 105 94 76
318 292 288 279 286 284 115 119 17 336 138 132 29 311 143 146 120 149 176 191 169 147 142 154 155 153 156 154 151 154 149 145 134 130 132 134 107 106 108 115 120 139 131 136 131 126 119 103 82
296 258 248 260 271 271 127 156 129 10 136 122 136 33 82 117 132 176 190 190 157 145 179 160 146 164 162 158 150 150 150 141 127 124 135 140 136 159 160 161 143 123 135 144 152 148 138 141 154
235 238 238 265 289 310 190 183 151 176 220 209 143 117 131 132 157 179 186 190 179 164 187 168 161 176 167 160 146 157 160 152 152 147 174 182 163 154 163 129 135 141 142 147 159 162 177 188 196
242 244 277 278 286 5 351 335 241 179 269 220 215 179 165 151 187 179 198 195 202 172 175 183 170 179 163 167 158 162 159 170 165 158 193 224 124 141 143 143 145 145 165 175 161 178 213 229 224
266 259 281 283 298 45 332 322 315 226 238 295 351 121 163 169 186 194 194 209 213 185 175 181 178 183 171 142 160 166 165 166 156 167 203 195 145 156 175 161 181 174 180 206 190 198 225 207 276
247 258 274 281 275 297 286 284 264 293 299 327 286 160 190 181 194 204 198 200 198 206 201 179 187 179 173 159 166 182 173 164 167 182 192 173 185 173 197 175 180 184 181 210 195 199 180 223 200
327 321 284 277 275 258 271 256 262 251 229 267 269 206 223 204 202 189 186 201 205 216 193 184 188 183 173 176 173 189 177 172 171 181 178 185 184 176 197 192 180 187 190 206 199 198 195 204 184
328 306 276 256 257 239 320 282 252 250 265 242 267 271 231 225 203 203 198 200 196 214 207 190 184 185 182 176 182 187 181 174 187 183 175 183 192 177 188 191 186 194 193 202 207 220 190 196 198
290 280 266 234 252 239 169 254 279 287 234 242 236 244 252 240 214 199 195 197 202 194 208 186 183 188 189 186 188 189 179 186 183 185 172 178 198 186 185 181 187 200 191 189 185 197 206 218 210
208 255 250 256 260 254 200 258 237 275 258 258 252 236 243 242 232 200 194 194 193 201 200 203 182 188 191 195 190 189 186 189 184 176 181 186 188 200 174 185 190 194 188 186 194 211 184 202 227
210 226 239 257 260 256 257 257 254 235 265 274 258 251 244 249 242 212 204 194 187 199 196 215 190 189 191 194 191 189 197 189 183 191 189 182 189 190 192 185 193 184 180 196 197 197 212 194 202
266 255 254 243 235 246 248 263 260 267 255 247 252 256 244 259 258 235 203 195 186 187 196 210 197 192 185 195 193 195 201 197 197 199 194 187 186 192 195 191 190 184 183 195 198 196 205 226 211
233 252 259 270 296 303 285 267 260 256 260 247 244 248 250 243 246 259 230 193 193 189 192 202 206 195 190 199 199 200 197 198 202 204 198 189 186 191 196 195 198 188 185 196 203 190 194 209 188
227 226 246 266 308 290 286 267 265 256 261 255 251 248 249 249 243 240 234 214 197 198 190 198 206 201 196 197 193 196 199 199 197 202 203 199 192 194 193 194 200 197 186 199 201 197 190 197 209
249 235 246 260 256 262 292 284 275 283 258 236 239 240 243 244 241 244 241 223 209 203 199 199 202 205 205 196 195 196 197 200 204 201 199 203 200 196 198 196 199 202 197 197 203 200 201 176 197
252 225 245 250 250 263 262 266 268 318 275 267 268 258 235 236 234 240 240 240 227 205 201 201 202 207 206 203 204 198 201 207 201 198 196 198 201 201 200 201 198 203 204 206 201 192 201 196 203
273 73 334 291 225 243 244 221 266 251 258 272 265 258 233 219 228 237 231 227 231 218 201 200 202 208 208 207 205 204 206 201 202 201 196 199 199 200 203 202 203 206 207 207 201 204 197 202 207
216 179 231 233 217 247 245 218 241 272 254 259 274 287 293 232 225 223 217 225 228 227 200 200 203 210 210 211 208 209 208 206 206 201 203 195 200 197 205 201 203 206 209 207 203 199 206 203 207
209 205 230 263 239 263 201 219 243 242 241 247 264 262 259 276 264 243 230 230 224 219 206 201 202 211 210 212 214 212 210 210 210 207 203 206 203 204 199 201 205 208 209 209 205 204 206 209 210
219 214 230 260 272 283 242 269 285 272 273 234 255 279 257 256 258 245 241 234 238 233 223 202 206 211 212 213 214 214 212 213 211 211 208 208 207 204 202 198 203 206 206 206 204 207 208 206 209
220 158 180 202 234 233 218 237 252 263 258 261 241 239 239 240 256 259 252 242 242 235 234 226 219 215 213 217 217 216 214 215 218 213 214 212 210 203 198 198 200 204 206 204 203 208 209 206 210
216 238 236 226 256 245 300 238 223 242 254 45 6 359 289 222 278 342 317 306 290 289 255 232 220 227 222 219 224 220 218 217 215 217 216 216 213 204 202 199 197 201 202 202 204 212 208 206 215
222 229 228 224 250 234 260 271 258 289 295 298 305 337 303 16 322 317 314 306 297 279 270 250 256 240 228 220 224 227 221 218 219 220 221 217 216 210 203 203 198 198 201 202 204 207 209 213 209